CW5437 Weather Reports


Display with metric or nautical units.
time (UTC)temp
F
wind
direction
speed
MPH
gust
MPH
rain 1hr
in
rain 24hr
in
rain mn
in
humidity
%
barometer
mb
20260906033007 59 228 1.0 2.0 0.00 0.00 0.00 90 1015.0
20260906032001 59 250 2.0 2.0 0.00 0.00 0.00 89 1014.9
20260906031001 59 228 0.0 1.0 0.00 0.00 0.00 89 1015.0
20260906030002 60 205 1.0 1.0 0.00 0.00 0.00 88 1015.0
20260906025003 60 138 1.0 1.0 0.00 0.00 0.00 88 1014.9
20260906024004 60 138 2.0 3.0 0.00 0.00 0.00 87 1015.0
20260906022005 61 138 1.0 1.0 0.00 0.00 0.00 86 1015.0
20260906021006 61 138 1.0 1.0 0.00 0.00 0.00 85 1014.9
20260906020006 62 183 1.0 1.0 0.00 0.00 0.00 85 1015.0
20260906015001 62 228 0.0 1.0 0.00 0.00 0.00 84 1014.9
20260906014002 62 228 0.0 1.0 0.00 0.00 0.00 82 1014.8
20260906013003 63 48 1.0 1.0 0.00 0.00 0.00 81 1014.8
20260906012004 64 48 1.0 1.0 0.00 0.00 0.00 80 1014.6
20260906010005 64 48 2.0 3.0 0.00 0.00 0.00 77 1014.5
20260906005006 65 295 2.0 3.0 0.00 0.00 0.00 76 1014.5
20260906004006 65 228 1.0 1.0 0.00 0.00 0.00 75 1014.3
20260906003007 65 340 1.0 3.0 0.00 0.00 0.00 73 1014.2
20260906002002 66 48 2.0 3.0 0.00 0.00 0.00 71 1014.4
20260905235003 67 70 2.0 4.0 0.00 0.00 0.00 68 1014.2
20260905234005 68 3 4.0 6.0 0.00 0.00 0.00 68 1014.1
20260905233007 68 3 4.0 7.0 0.00 0.00 0.00 66 1014.2
20260905231007 69 25 4.0 6.0 0.00 0.00 0.00 62 1014.1
20260905230002 70 318 5.0 7.0 0.00 0.00 0.00 62 1014.1
20260905225002 70 318 4.0 7.0 0.00 0.00 0.00 61 1014.3
20260905224003 71 318 5.0 7.0 0.00 0.00 0.00 59 1014.4
20260905223004 71 3 6.0 9.0 0.00 0.00 0.00 58 1014.4
20260905222005 72 318 7.0 12.0 0.00 0.00 0.00 55 1014.3
20260905221006 73 340 6.0 11.0 0.00 0.00 0.00 57 1014.3
20260905220007 73 340 6.0 9.0 0.00 0.00 0.00 56 1014.3
20260905215002 75 318 6.0 9.0 0.00 0.00 0.00 57 1014.0
20260905214003 75 273 2.0 4.0 0.00 0.00 0.00 58 1013.9
20260905213004 74 318 3.0 6.0 0.00 0.00 0.00 56 1013.8
20260905212005 75 3 6.0 10.0 0.00 0.00 0.00 53 1013.7
20260905211006 76 340 5.0 9.0 0.00 0.00 0.00 55 1013.7
20260905210007 75 318 3.0 6.0 0.00 0.00 0.00 53 1013.8
20260905205002 76 340 7.0 9.0 0.00 0.00 0.00 52 1013.7
20260905203002 76 340 4.0 7.0 0.00 0.00 0.00 53 1013.6
20260905202003 75 25 6.0 9.0 0.00 0.00 0.00 52 1013.6
20260905201005 76 295 4.0 6.0 0.00 0.00 0.00 52 1013.6
20260905200005 76 3 5.0 7.0 0.00 0.00 0.00 52 1013.7
20260905195006 76 3 5.0 8.0 0.00 0.00 0.00 54 1013.9
20260905194007 74 48 5.0 9.0 0.00 0.00 0.00 55 1013.9
20260905193002 76 3 6.0 10.0 0.00 0.00 0.00 52 1013.8
20260905192003 75 340 4.0 7.0 0.00 0.00 0.00 53 1013.8
20260905191003 76 340 8.0 12.0 0.00 0.00 0.00 52 1013.8
20260905185003 78 340 6.0 9.0 0.00 0.00 0.00 50 1013.8
20260905184004 78 3 4.0 6.0 0.00 0.00 0.00 50 1013.9
20260905183004 78 318 5.0 8.0 0.00 0.00 0.00 49 1013.9
20260905182005 78 3 6.0 11.0 0.00 0.00 0.00 49 1013.9
20260905181025 80 3 6.0 8.0 0.00 0.00 0.00 48 1014.1
20260905180006 79 340 4.0 6.0 0.00 0.00 0.00 46 1013.9
20260905175007 78 318 6.0 7.0 0.00 0.00 0.00 48 1013.9
20260905172006 78 340 6.0 9.0 0.00 0.00 0.00 50 1014.2
20260905171007 77 3 4.0 6.0 0.00 0.00 0.00 52 1014.2
20260905170007 76 295 4.0 6.0 0.00 0.00 0.00 53 1014.2
20260905165007 75 3 4.0 8.0 0.00 0.00 0.00 55 1014.2
20260905164002 76 25 4.0 6.0 0.00 0.00 0.00 55 1014.3
20260905163003 76 340 4.0 7.0 0.00 0.00 0.00 54 1014.4
20260905162004 75 3 2.0 4.0 0.00 0.00 0.00 51 1014.4
20260905160004 75 25 5.0 9.0 0.00 0.00 0.00 52 1014.5
20260905155006 74 70 4.0 6.0 0.00 0.00 0.00 53 1014.5
20260905154006 73 48 7.0 11.0 0.00 0.00 0.00 54 1014.4
20260905153006 76 48 6.0 11.0 0.00 0.00 0.00 54 1014.3
20260905152007 75 48 5.0 8.0 0.00 0.00 0.00 53 1014.2
20260905151008 75 25 8.0 12.0 0.00 0.00 0.00 53 1014.2
20260905145002 74 25 4.0 6.0 0.00 0.00 0.00 57 1014.2
20260905143002 74 3 4.0 7.0 0.00 0.00 0.00 58 1014.2
20260905142002 75 340 3.0 6.0 0.00 0.00 0.00 60 1014.2
20260905140003 74 3 4.0 5.0 0.00 0.00 0.00 64 1014.3
20260905135004 74 93 4.0 5.0 0.00 0.00 0.00 65 1014.3
20260905134005 73 340 3.0 4.0 0.00 0.00 0.00 66 1014.3
20260905132006 72 70 7.0 9.0 0.00 0.00 0.00 69 1014.2
20260905131001 71 3 5.0 7.0 0.00 0.00 0.00 70 1014.1
20260905125006 70 340 3.0 6.0 0.00 0.00 0.00 76 1014.2
20260905124001 70 3 2.0 4.0 0.00 0.00 0.00 77 1014.2
20260905123007 70 340 4.0 9.0 0.00 0.00 0.00 78 1014.2
20260905122002 69 3 0.0 1.0 0.00 0.00 0.00 79 1014.1
20260905121007 69 25 3.0 5.0 0.00 0.00 0.00 79 1014.1
20260905112002 65 205 1.0 1.0 0.00 0.00 0.00 89 1014.1
20260905111003 65 318 1.0 1.0 0.00 0.00 0.00 90 1014.2
20260905110004 65 183 0.0 1.0 0.00 0.00 0.00 89 1014.4
20260905104004 64 25 1.0 2.0 0.00 0.00 0.00 90 1013.9
20260905102003 64 25 0.0 1.0 0.00 0.00 0.00 89 1013.7
20260905101004 65 70 2.0 3.0 0.00 0.00 0.00 89 1013.3
20260905100002 65 48 1.0 2.0 0.00 0.00 0.00 89 1013.3
20260905094001 66 48 3.0 4.0 0.00 0.00 0.00 90 1013.2
20260905093002 66 48 2.0 3.0 0.00 0.00 0.00 91 1013.2
20260905085006 67 25 2.0 3.0 0.00 0.00 0.00 94 1013.3
20260905084006 67 183 1.0 1.0 0.00 0.00 0.00 94 1013.2
20260905082004 67 3 2.0 3.0 0.00 0.00 0.00 94 1012.9
20260905081003 67 48 2.0 3.0 0.00 0.00 0.00 93 1012.8
20260905080002 67 93 0.0 0.0 0.00 0.00 0.00 93 1012.8
20260905075002 67 205 1.0 1.0 0.00 0.00 0.00 93 1013.0
20260905073002 67 250 0.0 1.0 0.00 0.00 0.00 93 1013.2
20260905072002 67 228 0.0 1.0 0.00 0.00 0.00 93 1013.3
20260905071002 67 228 1.0 1.0 0.00 0.00 0.00 92 1013.3
20260905070002 67 273 0.0 1.0 0.00 0.00 0.00 92 1013.6
20260905065003 67 250 1.0 1.0 0.00 0.00 0.00 92 1013.8
20260905064003 68 228 0.0 1.0 0.00 0.00 0.00 92 1013.8
20260905063004 68 115 0.0 1.0 0.00 0.00 0.00 91 1013.8
20260905062005 68 115 0.0 1.0 0.00 0.00 0.00 91 1013.8
20260905061006 68 138 0.0 1.0 0.00 0.00 0.00 91 1013.8
20260905055004 68 70 1.0 2.0 0.00 0.00 0.00 90 1014.0
20260905054005 68 48 1.0 3.0 0.00 0.00 0.00 90 1014.1
20260905053006 68 318 1.0 1.0 0.00 0.00 0.00 90 1014.1
20260905052001 68 340 1.0 2.0 0.00 0.00 0.00 89 1014.2
20260905051002 68 340 2.0 3.0 0.00 0.00 0.00 89 1014.2
20260905050003 68 340 1.0 2.0 0.00 0.00 0.00 89 1014.3
20260905045003 68 273 1.0 3.0 0.00 0.00 0.00 89 1014.3
20260905044004 68 273 1.0 3.0 0.00 0.00 0.00 89 1014.3
20260905042004 68 3 2.0 3.0 0.00 0.00 0.00 89 1014.0
20260905041005 68 3 2.0 3.0 0.00 0.00 0.00 90 1014.2
20260905040006 68 3 3.0 4.0 0.00 0.00 0.00 90 1014.2
20260905035005 69 340 3.0 5.0 0.00 0.00 0.00 90 1014.3
20260905034007 69 340 3.0 5.0 0.00 0.00 0.00 89 1014.3